Baton Rouge, LA

8:08 AM CDT on July 25, 2017 (GMT -0500)
Baton Rouge Metro-Ryan

Weather History for KBTR - April, 2013

Change the Weather History Date:

Saturday, April 27, 2013

  Actual Average Record
Temperature  
Mean Temperature 74 °F 71 °F  
Max Temperature 83 °F 82 °F 90 °F (1963)
Min Temperature 65 °F 60 °F 47 °F (1992)
Degree Days  
Heating Degree Days 0 1  
Month to date heating degree days 73 51  
Since 1 July heating degree days 1521 1553  
Cooling Degree Days 9 6  
Month to date cooling degree days 98 121  
Year to date cooling degree days 142 210  
Growing Degree Days 23 (Base 50)    
Moisture  
Dew Point 65 °F    
Average Humidity 74    
Maximum Humidity 100    
Minimum Humidity 47    
Precipitation  
Precipitation T in 0.14 in 6.30 in (1962)
Month to date precipitation 5.61 4.05  
Year to date precipitation 30.56 19.22  
Snow  
Snow 0.00 in - - ()
Month to date snowfall 0.0  
Since 1 July snowfall 0.0  
Snow Depth 0.00 in    
Sea Level Pressure  
Sea Level Pressure 30.12 in    
Wind  
Wind Speed 8 mph (SE)    
Max Wind Speed 20 mph    
Max Gust Speed 25 mph    
Visibility 7 miles    
Events      
T = Trace of Precipitation, MM = Missing Value Source: NWS Daily Summary

Daily Weather History Graph

Daily Weather History Graph

Search for Another Location

Airport or City:

Trip Planner

Search our weather history database for the weather conditions in past years. The results will help you decide how hot, cold, wet, or windy it might be!

Date:

Astronomy

Apr. 27, 2013 Rise Set
Actual Time 6:24 AM CDT 7:40 PM CDT
Civil Twilight 5:59 AM CDT 8:05 PM CDT
Nautical Twilight 5:29 AM CDT 8:35 PM CDT
Astronomical Twilight 4:57 AM CDT 9:07 PM CDT
Moon 10:02 PM CDT (4/27) 7:49 AM CDT (4/27)
Length of Visible Light 14h 06m
Length of Day
13h 15m
Waning Gibbous, 95% of the Moon is Illuminated
Apr 27
Waning Gibbous
May 2
Last Quarter
May 9
New
May 17
First Quarter
May 24
Full

Hourly Weather History & Observations

Time (CDT) Temp. Heat Index Dew Point Humidity Pressure Visibility Wind Dir Wind Speed Gust Speed Precip Events Conditions
12:53 AM 66.0 °F - 63.0 °F 90% 30.17 in 10.0 mi SE 8.1 mph - N/A   Clear
1:53 AM 66.9 °F - 64.0 °F 90% 30.14 in 10.0 mi SE 5.8 mph - N/A   Clear
2:18 AM 66.2 °F - 64.4 °F 94% 30.12 in 10.0 mi SE 5.8 mph - N/A   Partly Cloudy
2:38 AM 66.2 °F - 64.4 °F 94% 30.13 in 10.0 mi Calm Calm - N/A   Mostly Cloudy
2:53 AM 66.0 °F - 64.0 °F 93% 30.13 in 9.0 mi NE 3.5 mph - N/A   Overcast
3:53 AM 66.0 °F - 64.0 °F 93% 30.13 in 7.0 mi Calm Calm - N/A   Overcast
4:53 AM 64.9 °F - 64.0 °F 97% 30.12 in 6.0 mi East 3.5 mph - N/A   Overcast
5:27 AM 66.2 °F - 64.4 °F 94% 30.12 in 3.0 mi ENE 3.5 mph - N/A   Overcast
5:38 AM 66.2 °F - 64.4 °F 94% 30.12 in 2.5 mi Calm Calm - N/A   Overcast
5:53 AM 66.0 °F - 64.9 °F 96% 30.13 in 2.5 mi ENE 3.5 mph - N/A   Overcast
6:16 AM 66.2 °F - 66.2 °F 100% 30.13 in 1.5 mi East 5.8 mph - N/A   Overcast
6:26 AM 66.2 °F - 66.2 °F 100% 30.14 in 0.8 mi East 6.9 mph - N/A   Overcast
6:53 AM 66.9 °F - 66.0 °F 97% 30.14 in 0.8 mi East 4.6 mph - N/A   Overcast
7:15 AM 66.2 °F - 66.2 °F 100% 30.15 in 1.0 mi East 4.6 mph - N/A   Overcast
7:24 AM 68.0 °F - 66.2 °F 94% 30.16 in 1.0 mi East 4.6 mph - N/A   Overcast
7:53 AM 68.0 °F - 66.9 °F 96% 30.17 in 1.0 mi East 4.6 mph - N/A   Overcast
8:23 AM 69.8 °F - 66.2 °F 88% 30.18 in 2.0 mi ESE 5.8 mph - N/A   Mostly Cloudy
8:46 AM 71.6 °F - 68.0 °F 88% 30.17 in 3.0 mi ESE 9.2 mph - N/A   Mostly Cloudy
8:53 AM 72.0 °F - 68.0 °F 87% 30.17 in 5.0 mi ESE 6.9 mph - N/A   Mostly Cloudy
9:40 AM 73.4 °F - 68.0 °F 83% 30.17 in 9.0 mi ESE 6.9 mph - N/A   Scattered Clouds
9:53 AM 73.9 °F - 66.9 °F 79% 30.17 in 10.0 mi SE 6.9 mph - N/A   Scattered Clouds
10:36 AM 75.2 °F - 66.2 °F 73% 30.16 in 10.0 mi SE 6.9 mph - N/A   Mostly Cloudy
10:53 AM 75.9 °F - 66.0 °F 71% 30.16 in 10.0 mi South 8.1 mph 17.3 mph N/A   Mostly Cloudy
11:14 AM 78.8 °F - 66.2 °F 65% 30.15 in 10.0 mi SSE 15.0 mph 18.4 mph N/A   Mostly Cloudy
11:53 AM 80.1 °F 82.3 °F 66.9 °F 64% 30.14 in 10.0 mi SSE 15.0 mph 19.6 mph N/A   Mostly Cloudy
12:53 PM 82.0 °F 83.1 °F 63.0 °F 52% 30.12 in 10.0 mi SSW 11.5 mph 23.0 mph N/A   Scattered Clouds
1:53 PM 82.9 °F 84.0 °F 63.0 °F 51% 30.10 in 10.0 mi South 12.7 mph - N/A   Partly Cloudy
2:53 PM 82.9 °F 83.7 °F 62.1 °F 49% 30.09 in 10.0 mi South 10.4 mph - N/A   Mostly Cloudy
3:53 PM 81.0 °F 82.2 °F 63.0 °F 54% 30.07 in 10.0 mi South 12.7 mph - N/A   Overcast
4:53 PM 82.0 °F 82.7 °F 61.0 °F 49% 30.04 in 10.0 mi South 16.1 mph - N/A   Scattered Clouds
5:53 PM 80.1 °F 80.9 °F 60.1 °F 50% 30.04 in 10.0 mi SSW 9.2 mph 25.3 mph N/A   Partly Cloudy
6:53 PM 77.0 °F - 60.1 °F 56% 30.04 in 10.0 mi SW 8.1 mph - N/A   Clear
7:53 PM 75.0 °F - 61.0 °F 62% 30.04 in 10.0 mi WSW 9.2 mph - N/A   Scattered Clouds
8:53 PM 73.9 °F - 64.0 °F 71% 30.03 in 10.0 mi South 11.5 mph - N/A   Partly Cloudy
9:53 PM 72.0 °F - 64.0 °F 76% 30.07 in 10.0 mi WSW 8.1 mph - N/A   Clear
10:53 PM 73.0 °F - 64.9 °F 76% 30.05 in 10.0 mi South 9.2 mph - N/A   Clear
11:53 PM 73.0 °F - 66.9 °F 81% 30.06 in 10.0 mi South 10.4 mph - N/A   Mostly Cloudy